| time (UTC) | temp F | wind direction | speed MPH | gust MPH | rain 1hr in | rain 24hr in | rain mn in | humidity % | barometer mb |
| 20260505102010 | 51 | 326 | 0.0 | 2.0 | 0.00 | 0.35 | 0.00 | 82 | 1007.0 |
| 20260505101527 | 51 | 324 | 0.0 | 2.0 | 0.00 | 0.35 | 0.00 | 84 | 1006.9 |
| 20260505101010 | 51 | 324 | 0.0 | 2.0 | 0.00 | 0.35 | 0.00 | 81 | 1006.4 |
| 20260505100508 | 51 | 83 | 0.0 | 3.0 | 0.00 | 0.35 | 0.00 | 81 | 1006.0 |
| 20260505100029 | 51 | 37 | 1.0 | 3.0 | 0.00 | 0.35 | 0.00 | 81 | 1006.0 |
| 20260505095504 | 51 | 11 | 0.0 | 5.0 | 0.00 | 0.35 | 0.00 | 82 | 1006.0 |
| 20260505095008 | 52 | 306 | 1.0 | 5.0 | 0.00 | 0.35 | 0.00 | 82 | 1006.1 |
| 20260505094516 | 52 | 335 | 1.0 | 3.0 | 0.00 | 0.35 | 0.00 | 83 | 1006.2 |
| 20260505094006 | 52 | 326 | 1.0 | 3.0 | 0.00 | 0.35 | 0.00 | 83 | 1006.4 |
| 20260505093506 | 52 | 338 | 0.0 | 3.0 | 0.00 | 0.35 | 0.00 | 84 | 1006.4 |
| 20260505093018 | 53 | 315 | 1.0 | 3.0 | 0.00 | 0.35 | 0.00 | 82 | 1006.5 |
| 20260505092507 | 53 | 328 | 0.0 | 2.0 | 0.00 | 0.35 | 0.00 | 80 | 1006.1 |
| 20260505092008 | 53 | 278 | 0.0 | 3.0 | 0.00 | 0.35 | 0.00 | 80 | 1006.4 |
| 20260505091527 | 53 | 333 | 1.0 | 3.0 | 0.00 | 0.35 | 0.00 | 80 | 1006.7 |
| 20260505091004 | 53 | 326 | 1.0 | 3.0 | 0.00 | 0.35 | 0.00 | 81 | 1006.6 |
| 20260505090507 | 53 | 311 | 1.0 | 1.0 | 0.00 | 0.35 | 0.00 | 81 | 1006.6 |
| 20260505090038 | 54 | 287 | 0.0 | 2.0 | 0.00 | 0.35 | 0.00 | 83 | 1006.8 |
| 20260505085515 | 54 | 286 | 0.0 | 2.0 | 0.00 | 0.35 | 0.00 | 81 | 1006.6 |
| 20260505085010 | 54 | 313 | 1.0 | 2.0 | 0.00 | 0.35 | 0.00 | 81 | 1006.6 |
| 20260505084525 | 54 | 306 | 1.0 | 2.0 | 0.00 | 0.35 | 0.00 | 81 | 1006.4 |
| 20260505084004 | 54 | 295 | 0.0 | 2.0 | 0.00 | 0.35 | 0.00 | 82 | 1006.4 |
| 20260505083505 | 54 | 315 | 0.0 | 3.0 | 0.00 | 0.35 | 0.00 | 84 | 1006.3 |
| 20260505083015 | 55 | 301 | 0.0 | 3.0 | 0.00 | 0.35 | 0.00 | 88 | 1006.1 |
| 20260505082504 | 55 | 294 | 1.0 | 3.0 | 0.00 | 0.35 | 0.00 | 88 | 1005.8 |
| 20260505082007 | 55 | 253 | 0.0 | 2.0 | 0.00 | 0.35 | 0.00 | 90 | 1005.7 |
| 20260505081521 | 55 | 253 | 1.0 | 2.0 | 0.00 | 0.35 | 0.00 | 90 | 1005.6 |
| 20260505081005 | 55 | 250 | 0.0 | 2.0 | 0.00 | 0.35 | 0.00 | 90 | 1005.4 |
| 20260505080508 | 55 | 173 | 0.0 | 0.0 | 0.00 | 0.35 | 0.00 | 90 | 1005.1 |
| 20260505080021 | 55 | 173 | 0.0 | 0.0 | 0.00 | 0.35 | 0.00 | 90 | 1004.9 |
| 20260505075506 | 55 | 173 | 0.0 | 0.0 | 0.00 | 0.35 | 0.00 | 91 | 1004.8 |
| 20260505075007 | 55 | 173 | 0.0 | 0.0 | 0.00 | 0.35 | 0.00 | 91 | 1004.7 |
| 20260505074524 | 55 | 173 | 0.0 | 3.0 | 0.00 | 0.35 | 0.00 | 92 | 1004.9 |
| 20260505074007 | 55 | 173 | 0.0 | 4.0 | 0.00 | 0.35 | 0.00 | 92 | 1004.9 |
| 20260505073508 | 55 | 216 | 2.0 | 4.0 | 0.00 | 0.35 | 0.00 | 92 | 1005.0 |
| 20260505073043 | 55 | 221 | 4.0 | 4.0 | 0.00 | 0.35 | 0.00 | 92 | 1005.0 |
| 20260505072505 | 55 | 240 | 2.0 | 4.0 | 0.00 | 0.35 | 0.00 | 91 | 1004.9 |
| 20260505072007 | 56 | 243 | 2.0 | 4.0 | 0.00 | 0.35 | 0.00 | 91 | 1005.0 |
| 20260505071519 | 56 | 264 | 2.0 | 4.0 | 0.00 | 0.35 | 0.00 | 91 | 1004.8 |
| 20260505071004 | 56 | 262 | 3.0 | 5.0 | 0.00 | 0.35 | 0.00 | 91 | 1004.5 |
| 20260505070509 | 56 | 255 | 3.0 | 5.0 | 0.00 | 0.35 | 0.00 | 91 | 1004.3 |
| 20260505070022 | 56 | 270 | 3.0 | 5.0 | 0.00 | 0.35 | 0.00 | 91 | 1004.3 |
| 20260505065508 | 56 | 266 | 3.0 | 4.0 | 0.00 | 0.35 | 0.00 | 90 | 1004.2 |
| 20260505065006 | 57 | 228 | 3.0 | 5.0 | 0.00 | 0.35 | 0.00 | 90 | 1004.0 |
| 20260505064536 | 57 | 217 | 3.0 | 6.0 | 0.00 | 0.35 | 0.00 | 89 | 1004.0 |
| 20260505064007 | 57 | 225 | 4.0 | 7.0 | 0.00 | 0.35 | 0.00 | 88 | 1003.9 |
| 20260505063509 | 57 | 249 | 5.0 | 7.0 | 0.00 | 0.35 | 0.00 | 89 | 1004.2 |
| 20260505063026 | 57 | 234 | 6.0 | 7.0 | 0.00 | 0.35 | 0.00 | 90 | 1004.2 |
| 20260505062509 | 57 | 255 | 4.0 | 5.0 | 0.00 | 0.35 | 0.00 | 89 | 1003.8 |
| 20260505062011 | 57 | 270 | 3.0 | 5.0 | 0.00 | 0.35 | 0.00 | 88 | 1003.6 |
| 20260505061540 | 57 | 266 | 4.0 | 6.0 | 0.00 | 0.35 | 0.00 | 88 | 1003.6 |
| 20260505061003 | 58 | 275 | 3.0 | 6.0 | 0.00 | 0.35 | 0.00 | 88 | 1003.6 |
| 20260505060508 | 58 | 272 | 4.0 | 5.0 | 0.00 | 0.35 | 0.00 | 88 | 1003.4 |
| 20260505060020 | 58 | 271 | 4.0 | 5.0 | 0.00 | 0.35 | 0.00 | 87 | 1003.2 |
| 20260505055506 | 58 | 295 | 0.0 | 5.0 | 0.00 | 0.35 | 0.00 | 88 | 1002.9 |
| 20260505055007 | 58 | 295 | 2.0 | 5.0 | 0.00 | 0.35 | 0.00 | 87 | 1002.9 |
| 20260505054532 | 59 | 352 | 1.0 | 5.0 | 0.00 | 0.35 | 0.00 | 87 | 1002.9 |
| 20260505054012 | 59 | 311 | 0.0 | 8.0 | 0.00 | 0.35 | 0.00 | 85 | 1003.1 |
| 20260505053511 | 60 | 299 | 5.0 | 8.0 | 0.00 | 0.35 | 0.00 | 83 | 1002.9 |
| 20260505053030 | 60 | 300 | 6.0 | 7.0 | 0.00 | 0.35 | 0.00 | 83 | 1002.9 |
| 20260505052509 | 59 | 290 | 5.0 | 7.0 | 0.00 | 0.35 | 0.00 | 84 | 1002.9 |
| 20260505052008 | 59 | 295 | 5.0 | 7.0 | 0.01 | 0.35 | 0.00 | 85 | 1002.8 |
| 20260505051526 | 58 | 288 | 2.0 | 5.0 | 0.01 | 0.35 | 0.00 | 88 | 1002.6 |
| 20260505051014 | 59 | 269 | 4.0 | 5.0 | 0.01 | 0.35 | 0.00 | 89 | 1002.6 |
| 20260505050507 | 58 | 269 | 4.0 | 5.0 | 0.01 | 0.35 | 0.00 | 89 | 1002.4 |
| 20260505041512 | 58 | 249 | 4.0 | 5.0 | 0.05 | 0.34 | 0.34 | 91 | 1002.1 |
| 20260505041004 | 58 | 240 | 0.0 | 4.0 | 0.08 | 0.34 | 0.34 | 92 | 1001.9 |
| 20260505040506 | 58 | 15 | 1.0 | 4.0 | 0.09 | 0.34 | 0.34 | 91 | 1001.9 |
| 20260505040015 | 58 | 259 | 2.0 | 4.0 | 0.10 | 0.34 | 0.34 | 89 | 1001.4 |
| 20260505035505 | 58 | 301 | 0.0 | 7.0 | 0.13 | 0.34 | 0.34 | 90 | 1001.8 |
| 20260505035003 | 58 | 340 | 2.0 | 7.0 | 0.19 | 0.34 | 0.34 | 89 | 1002.0 |
| 20260505034517 | 57 | 129 | 1.0 | 3.0 | 0.25 | 0.34 | 0.34 | 90 | 1001.9 |
| 20260505034009 | 57 | 301 | 0.0 | 10.0 | 0.33 | 0.33 | 0.33 | 91 | 1003.0 |
| 20260505033506 | 57 | 293 | 2.0 | 10.0 | 0.32 | 0.32 | 0.32 | 89 | 1003.3 |
| 20260505033022 | 57 | 295 | 2.0 | 5.0 | 0.31 | 0.31 | 0.31 | 90 | 1003.6 |
| 20260505032503 | 57 | 264 | 1.0 | 6.0 | 0.31 | 0.31 | 0.31 | 91 | 1003.4 |
| 20260505032003 | 57 | 270 | 3.0 | 6.0 | 0.30 | 0.30 | 0.30 | 91 | 1003.7 |
| 20260505031519 | 57 | 41 | 0.0 | 4.0 | 0.29 | 0.29 | 0.29 | 91 | 1003.4 |
| 20260505031003 | 57 | 309 | 0.0 | 3.0 | 0.26 | 0.26 | 0.26 | 90 | 1003.7 |
| 20260505030503 | 57 | 63 | 1.0 | 3.0 | 0.25 | 0.25 | 0.25 | 89 | 1003.4 |
| 20260505030012 | 57 | 17 | 1.0 | 3.0 | 0.24 | 0.24 | 0.24 | 87 | 1003.5 |
| 20260505025504 | 58 | 54 | 1.0 | 5.0 | 0.21 | 0.21 | 0.21 | 84 | 1003.6 |
| 20260505025004 | 60 | 319 | 1.0 | 7.0 | 0.15 | 0.15 | 0.15 | 79 | 1003.8 |
| 20260505024525 | 62 | 158 | 2.0 | 8.0 | 0.09 | 0.09 | 0.09 | 73 | 1003.6 |
| 20260505024003 | 64 | 281 | 2.0 | 14.0 | 0.00 | 0.00 | 0.00 | 66 | 1003.5 |
| 20260505023507 | 66 | 309 | 5.0 | 30.0 | 0.00 | 0.00 | 0.00 | 58 | 1003.4 |
| 20260505023019 | 68 | 9 | 11.0 | 30.0 | 0.00 | 0.00 | 0.00 | 60 | 1003.4 |
| 20260505022506 | 68 | 219 | 10.0 | 14.0 | 0.00 | 0.00 | 0.00 | 64 | 1001.5 |
| 20260505022007 | 68 | 225 | 11.0 | 14.0 | 0.00 | 0.00 | 0.00 | 63 | 1001.3 |
| 20260505021526 | 68 | 225 | 11.0 | 14.0 | 0.00 | 0.00 | 0.00 | 63 | 1001.2 |
| 20260505021006 | 68 | 224 | 11.0 | 17.0 | 0.00 | 0.00 | 0.00 | 62 | 1001.1 |
| 20260505020503 | 68 | 210 | 12.0 | 17.0 | 0.00 | 0.00 | 0.00 | 61 | 1001.0 |
| 20260505020006 | 69 | 218 | 14.0 | 17.0 | 0.00 | 0.00 | 0.00 | 61 | 1001.0 |
| 20260505015504 | 69 | 233 | 13.0 | 17.0 | 0.00 | 0.00 | 0.00 | 61 | 1001.0 |
| 20260505015004 | 69 | 217 | 13.0 | 17.0 | 0.00 | 0.00 | 0.00 | 60 | 1001.0 |
| 20260505014512 | 69 | 211 | 14.0 | 20.0 | 0.00 | 0.00 | 0.00 | 60 | 1000.9 |
| 20260505014003 | 69 | 216 | 16.0 | 20.0 | 0.00 | 0.00 | 0.00 | 59 | 1000.8 |
| 20260505013509 | 69 | 219 | 16.0 | 21.0 | 0.00 | 0.00 | 0.00 | 59 | 1000.8 |
| 20260505013015 | 70 | 225 | 14.0 | 22.0 | 0.00 | 0.00 | 0.00 | 58 | 1000.7 |
| 20260505012506 | 70 | 240 | 18.0 | 22.0 | 0.00 | 0.00 | 0.00 | 58 | 1000.7 |
| 20260505012007 | 70 | 221 | 15.0 | 21.0 | 0.00 | 0.00 | 0.00 | 59 | 1000.6 |
| 20260505011006 | 70 | 217 | 14.0 | 19.0 | 0.00 | 0.00 | 0.00 | 59 | 1000.6 |
| 20260505010508 | 70 | 214 | 14.0 | 19.0 | 0.00 | 0.00 | 0.00 | 59 | 1000.5 |
| 20260505010022 | 70 | 222 | 14.0 | 20.0 | 0.00 | 0.00 | 0.00 | 59 | 1000.4 |
| 20260505005503 | 70 | 214 | 15.0 | 22.0 | 0.00 | 0.00 | 0.00 | 58 | 1000.3 |
| 20260505005004 | 70 | 238 | 15.0 | 22.0 | 0.00 | 0.00 | 0.00 | 58 | 1000.1 |
| 20260505004517 | 71 | 223 | 17.0 | 24.0 | 0.00 | 0.00 | 0.00 | 57 | 999.9 |
| 20260505004003 | 71 | 217 | 18.0 | 24.0 | 0.00 | 0.00 | 0.00 | 57 | 999.9 |
| 20260505003503 | 71 | 222 | 17.0 | 24.0 | 0.00 | 0.00 | 0.00 | 58 | 999.9 |
| 20260505003012 | 71 | 229 | 16.0 | 20.0 | 0.00 | 0.00 | 0.00 | 58 | 1000.0 |
| 20260505002509 | 71 | 226 | 15.0 | 20.0 | 0.00 | 0.00 | 0.00 | 58 | 1000.2 |
| 20260505002012 | 72 | 221 | 15.0 | 24.0 | 0.00 | 0.00 | 0.00 | 57 | 1000.2 |
| 20260505001514 | 72 | 236 | 17.0 | 24.0 | 0.00 | 0.00 | 0.00 | 56 | 1000.2 |
| 20260505001010 | 72 | 224 | 17.0 | 29.0 | 0.00 | 0.00 | 0.00 | 55 | 1000.1 |
| 20260505000508 | 73 | 225 | 21.0 | 30.0 | 0.00 | 0.00 | 0.00 | 54 | 1000.0 |
| 20260505000035 | 73 | 233 | 24.0 | 33.0 | 0.00 | 0.00 | 0.00 | 53 | 999.9 |
| 20260504235507 | 74 | 229 | 22.0 | 33.0 | 0.00 | 0.00 | 0.00 | 52 | 999.7 |
| 20260504235009 | 75 | 248 | 19.0 | 30.0 | 0.00 | 0.00 | 0.00 | 52 | 999.7 |
| 20260504234524 | 75 | 229 | 22.0 | 31.0 | 0.00 | 0.00 | 0.00 | 52 | 999.6 |
| 20260504234003 | 75 | 238 | 22.0 | 31.0 | 0.00 | 0.00 | 0.00 | 52 | 999.7 |
| 20260504233504 | 75 | 226 | 25.0 | 32.0 | 0.00 | 0.00 | 0.00 | 51 | 999.7 |
| 20260504233008 | 75 | 224 | 25.0 | 33.0 | 0.00 | 0.00 | 0.00 | 51 | 999.7 |
| 20260504232505 | 75 | 233 | 24.0 | 33.0 | 0.00 | 0.00 | 0.00 | 50 | 999.7 |
| 20260504232004 | 75 | 238 | 25.0 | 32.0 | 0.00 | 0.00 | 0.00 | 50 | 999.8 |
| 20260504231510 | 76 | 224 | 25.0 | 32.0 | 0.00 | 0.00 | 0.00 | 49 | 999.9 |
| 20260504231004 | 76 | 235 | 24.0 | 34.0 | 0.00 | 0.00 | 0.00 | 50 | 1000.0 |
| 20260504230507 | 76 | 242 | 27.0 | 35.0 | 0.00 | 0.00 | 0.00 | 49 | 1000.1 |
| 20260504230016 | 76 | 227 | 25.0 | 35.0 | 0.00 | 0.00 | 0.00 | 49 | 1000.2 |
| 20260504225507 | 76 | 232 | 24.0 | 33.0 | 0.00 | 0.00 | 0.00 | 49 | 1000.3 |
| 20260504225012 | 76 | 238 | 23.0 | 33.0 | 0.00 | 0.00 | 0.00 | 48 | 1000.3 |
| 20260504224521 | 76 | 245 | 25.0 | 32.0 | 0.00 | 0.00 | 0.00 | 47 | 1000.3 |
| 20260504224011 | 76 | 236 | 23.0 | 34.0 | 0.00 | 0.00 | 0.00 | 48 | 1000.4 |
| 20260504223006 | 76 | 225 | 27.0 | 33.0 | 0.00 | 0.00 | 0.00 | 47 | 1000.6 |
| 20260504222504 | 77 | 238 | 25.0 | 37.0 | 0.00 | 0.00 | 0.00 | 48 | 1000.7 |
| 20260504222003 | 77 | 236 | 26.0 | 37.0 | 0.00 | 0.00 | 0.00 | 47 | 1000.8 |
| 20260504221510 | 77 | 237 | 26.0 | 33.0 | 0.00 | 0.00 | 0.00 | 47 | 1000.9 |
| 20260504221008 | 77 | 237 | 25.0 | 33.0 | 0.00 | 0.00 | 0.00 | 47 | 1000.8 |
| 20260504220505 | 77 | 255 | 27.0 | 34.0 | 0.00 | 0.00 | 0.00 | 47 | 1000.9 |
| 20260504220016 | 77 | 243 | 23.0 | 34.0 | 0.00 | 0.00 | 0.00 | 47 | 1000.9 |
| 20260504215507 | 77 | 238 | 26.0 | 35.0 | 0.00 | 0.00 | 0.00 | 46 | 1001.0 |
| 20260504215008 | 77 | 238 | 29.0 | 35.0 | 0.00 | 0.00 | 0.00 | 45 | 1000.9 |
| 20260504214519 | 77 | 229 | 24.0 | 36.0 | 0.00 | 0.00 | 0.00 | 46 | 1001.0 |
| 20260504214009 | 78 | 238 | 26.0 | 36.0 | 0.00 | 0.00 | 0.00 | 45 | 1001.2 |
| 20260504213508 | 78 | 257 | 24.0 | 33.0 | 0.00 | 0.00 | 0.00 | 44 | 1001.2 |
| 20260504213023 | 78 | 237 | 25.0 | 37.0 | 0.00 | 0.00 | 0.00 | 44 | 1001.1 |
| 20260504212507 | 78 | 238 | 23.0 | 37.0 | 0.00 | 0.00 | 0.00 | 45 | 1001.2 |
| 20260504212009 | 77 | 241 | 25.0 | 36.0 | 0.00 | 0.00 | 0.00 | 46 | 1001.2 |
| 20260504211506 | 78 | 236 | 25.0 | 36.0 | 0.00 | 0.00 | 0.00 | 45 | 1001.2 |
| 20260504211004 | 78 | 227 | 26.0 | 34.0 | 0.00 | 0.00 | 0.00 | 44 | 1001.2 |
| 20260504210504 | 77 | 250 | 27.0 | 32.0 | 0.00 | 0.00 | 0.00 | 44 | 1001.2 |
| 20260504210018 | 78 | 231 | 24.0 | 33.0 | 0.00 | 0.00 | 0.00 | 43 | 1001.3 |
| 20260504205505 | 78 | 229 | 24.0 | 34.0 | 0.00 | 0.00 | 0.00 | 44 | 1001.3 |
| 20260504205004 | 77 | 238 | 27.0 | 35.0 | 0.00 | 0.00 | 0.00 | 43 | 1001.2 |
| 20260504204516 | 77 | 247 | 27.0 | 35.0 | 0.00 | 0.00 | 0.00 | 44 | 1001.2 |
| 20260504204006 | 78 | 241 | 27.0 | 35.0 | 0.00 | 0.00 | 0.00 | 43 | 1001.3 |
| 20260504203514 | 77 | 235 | 25.0 | 35.0 | 0.00 | 0.00 | 0.00 | 43 | 1001.2 |
| 20260504203027 | 78 | 232 | 26.0 | 35.0 | 0.00 | 0.00 | 0.00 | 44 | 1001.4 |
| 20260504202513 | 78 | 228 | 23.0 | 37.0 | 0.00 | 0.00 | 0.00 | 43 | 1001.5 |
| 20260504202012 | 78 | 250 | 25.0 | 37.0 | 0.00 | 0.00 | 0.00 | 43 | 1001.3 |
| 20260504201524 | 77 | 245 | 26.0 | 36.0 | 0.00 | 0.00 | 0.00 | 43 | 1001.4 |
| 20260504201006 | 78 | 240 | 26.0 | 31.0 | 0.00 | 0.00 | 0.00 | 43 | 1001.5 |
| 20260504200509 | 79 | 233 | 23.0 | 30.0 | 0.00 | 0.00 | 0.00 | 43 | 1001.6 |
| 20260504200011 | 78 | 243 | 25.0 | 30.0 | 0.00 | 0.00 | 0.00 | 43 | 1001.6 |
| 20260504195503 | 78 | 248 | 24.0 | 34.0 | 0.00 | 0.00 | 0.00 | 43 | 1001.7 |
| 20260504195005 | 78 | 232 | 24.0 | 34.0 | 0.00 | 0.00 | 0.00 | 43 | 1001.8 |
| 20260504194514 | 78 | 245 | 22.0 | 32.0 | 0.00 | 0.00 | 0.00 | 42 | 1001.7 |
| 20260504194005 | 78 | 233 | 22.0 | 32.0 | 0.00 | 0.00 | 0.00 | 45 | 1001.7 |
| 20260504193505 | 77 | 225 | 20.0 | 28.0 | 0.00 | 0.00 | 0.00 | 47 | 1002.1 |
| 20260504193017 | 78 | 236 | 20.0 | 28.0 | 0.00 | 0.00 | 0.00 | 47 | 1001.8 |
| 20260504192505 | 78 | 239 | 23.0 | 28.0 | 0.00 | 0.00 | 0.00 | 47 | 1001.8 |
| 20260504192009 | 78 | 225 | 19.0 | 29.0 | 0.00 | 0.00 | 0.00 | 47 | 1001.8 |
| 20260504191507 | 77 | 228 | 23.0 | 30.0 | 0.00 | 0.00 | 0.00 | 47 | 1002.0 |
| 20260504191004 | 77 | 217 | 22.0 | 30.0 | 0.00 | 0.00 | 0.00 | 46 | 1002.2 |
| 20260504190502 | 77 | 234 | 21.0 | 30.0 | 0.00 | 0.00 | 0.00 | 47 | 1002.3 |
| 20260504190007 | 76 | 235 | 20.0 | 30.0 | 0.00 | 0.00 | 0.00 | 49 | 1002.3 |
| 20260504185504 | 76 | 226 | 18.0 | 30.0 | 0.00 | 0.00 | 0.00 | 49 | 1002.2 |
| 20260504185003 | 75 | 238 | 15.0 | 26.0 | 0.00 | 0.00 | 0.00 | 53 | 1002.3 |
| 20260504184514 | 74 | 238 | 19.0 | 28.0 | 0.00 | 0.00 | 0.00 | 53 | 1002.3 |
| 20260504184004 | 74 | 233 | 20.0 | 29.0 | 0.00 | 0.00 | 0.00 | 56 | 1002.5 |
| 20260504183504 | 73 | 235 | 17.0 | 29.0 | 0.00 | 0.00 | 0.00 | 57 | 1002.7 |
| 20260504183017 | 73 | 227 | 18.0 | 26.0 | 0.00 | 0.00 | 0.00 | 57 | 1002.7 |
| 20260504182505 | 73 | 236 | 18.0 | 26.0 | 0.00 | 0.00 | 0.00 | 55 | 1002.6 |
| 20260504182006 | 72 | 222 | 19.0 | 26.0 | 0.00 | 0.00 | 0.00 | 58 | 1002.7 |
| 20260504181522 | 72 | 230 | 20.0 | 26.0 | 0.00 | 0.00 | 0.00 | 56 | 1002.7 |
| 20260504181007 | 72 | 242 | 21.0 | 30.0 | 0.00 | 0.00 | 0.00 | 54 | 1002.9 |
| 20260504180513 | 73 | 227 | 22.0 | 30.0 | 0.00 | 0.00 | 0.00 | 54 | 1002.7 |
| 20260504180009 | 73 | 244 | 23.0 | 30.0 | 0.00 | 0.00 | 0.00 | 52 | 1002.7 |
| 20260504175503 | 73 | 242 | 22.0 | 28.0 | 0.00 | 0.00 | 0.00 | 51 | 1002.8 |
| 20260504175003 | 73 | 223 | 22.0 | 28.0 | 0.00 | 0.00 | 0.00 | 50 | 1002.8 |
| 20260504174509 | 74 | 236 | 23.0 | 33.0 | 0.00 | 0.00 | 0.00 | 49 | 1002.8 |
| 20260504174003 | 74 | 238 | 20.0 | 33.0 | 0.00 | 0.00 | 0.00 | 49 | 1002.9 |
| 20260504173504 | 74 | 238 | 27.0 | 33.0 | 0.00 | 0.00 | 0.00 | 48 | 1002.9 |
| 20260504173014 | 74 | 250 | 22.0 | 31.0 | 0.00 | 0.00 | 0.00 | 46 | 1003.0 |
| 20260504172504 | 74 | 251 | 23.0 | 33.0 | 0.00 | 0.00 | 0.00 | 46 | 1002.9 |
| 20260504172004 | 74 | 241 | 25.0 | 33.0 | 0.00 | 0.00 | 0.00 | 46 | 1002.8 |
| 20260504171518 | 75 | 244 | 22.0 | 30.0 | 0.00 | 0.00 | 0.00 | 48 | 1002.9 |
| 20260504170508 | 74 | 233 | 23.0 | 30.0 | 0.00 | 0.00 | 0.00 | 47 | 1002.9 |
| 20260504151003 | 71 | 229 | 18.0 | 24.0 | 0.00 | 0.00 | 0.00 | 54 | 1003.3 |
| 20260504150507 | 70 | 245 | 18.0 | 23.0 | 0.00 | 0.00 | 0.00 | 57 | 1003.3 |
| 20260504110508 | 52 | 219 | 7.0 | 10.0 | 0.00 | 0.00 | 0.00 | 86 | 1005.2 |